| time (UTC) | temp F | wind direction | speed MPH | gust MPH | rain 1hr in | rain 24hr in | rain mn in | humidity % | barometer mb |
| 20260504213254 | 76 | 0.0 | 0.0 | 0.00 | 0.00 | 0.00 | 33 | 1005.9 | |
| 20260504213108 | 76 | 0.0 | 0.0 | 0.00 | 0.00 | 0.00 | 33 | 1005.9 | |
| 20260504210254 | 77 | 0.0 | 0.0 | 0.00 | 0.00 | 0.00 | 33 | 1005.9 | |
| 20260504210108 | 77 | 0.0 | 0.0 | 0.00 | 0.00 | 0.00 | 33 | 1005.9 | |
| 20260504203553 | 77 | 0.0 | 0.0 | 0.00 | 0.00 | 0.00 | 33 | 1006.1 | |
| 20260504203108 | 77 | 0.0 | 0.0 | 0.00 | 0.00 | 0.00 | 33 | 1006.1 | |
| 20260504200553 | 78 | 0.0 | 0.0 | 0.00 | 0.00 | 0.00 | 33 | 1007.3 | |
| 20260504200108 | 78 | 0.0 | 0.0 | 0.00 | 0.00 | 0.00 | 33 | 1007.3 | |
| 20260504193552 | 83 | 0.0 | 0.0 | 0.00 | 0.00 | 0.00 | 31 | 1007.6 | |
| 20260504193107 | 83 | 0.0 | 0.0 | 0.00 | 0.00 | 0.00 | 31 | 1007.6 | |
| 20260504191152 | 88 | 0.0 | 0.0 | 0.00 | 0.00 | 0.00 | 31 | 1007.7 | |
| 20260504190706 | 88 | 0.0 | 0.0 | 0.00 | 0.00 | 0.00 | 31 | 1007.7 | |
| 20260504184752 | 97 | 0.0 | 0.0 | 0.00 | 0.00 | 0.00 | 30 | 1008.0 | |
| 20260504184306 | 97 | 0.0 | 0.0 | 0.00 | 0.00 | 0.00 | 30 | 1008.0 | |
| 20260504182351 | 102 | 0.0 | 0.0 | 0.00 | 0.00 | 0.00 | 29 | 1007.8 | |
| 20260504181906 | 102 | 0.0 | 0.0 | 0.00 | 0.00 | 0.00 | 29 | 1007.8 | |
| 20260504175951 | 104 | 0.0 | 0.0 | 0.00 | 0.00 | 0.00 | 28 | 1008.3 | |
| 20260504175506 | 104 | 0.0 | 0.0 | 0.00 | 0.00 | 0.00 | 28 | 1008.3 | |
| 20260504173551 | 106 | 0.0 | 0.0 | 0.00 | 0.00 | 0.00 | 28 | 1008.5 | |
| 20260504173105 | 106 | 0.0 | 0.0 | 0.00 | 0.00 | 0.00 | 28 | 1008.5 | |
| 20260504171151 | 109 | 0.0 | 0.0 | 0.00 | 0.00 | 0.00 | 27 | 1008.7 | |
| 20260504170705 | 109 | 0.0 | 0.0 | 0.00 | 0.00 | 0.00 | 27 | 1008.7 | |
| 20260504150704 | 103 | 0.0 | 0.0 | 0.00 | 0.00 | 0.00 | 31 | 1009.0 | |
| 20260504130702 | 89 | 0.0 | 0.0 | 0.00 | 0.00 | 0.00 | 32 | 1009.0 | |
| 20260504110701 | 44 | 0.0 | 0.0 | 0.00 | 0.00 | 0.00 | 33 | 1011.3 | |
| 20260504081859 | 41 | 0.0 | 0.0 | 0.00 | 0.00 | 0.00 | 32 | 1011.8 | |
| 20260504043823 | 42 | 0.0 | 0.0 | 0.00 | 0.00 | 0.00 | 31 | 1011.9 | |
| 20260504040822 | 42 | 0.0 | 0.0 | 0.00 | 0.00 | 0.00 | 30 | 1011.6 | |
| 20260504033822 | 43 | 0.0 | 0.0 | 0.00 | 0.00 | 0.00 | 30 | 1011.3 | |
| 20260504030822 | 44 | 0.0 | 0.0 | 0.00 | 0.00 | 0.00 | 30 | 1011.1 | |
| 20260504024422 | 45 | 0.0 | 0.0 | 0.00 | 0.00 | 0.00 | 30 | 1011.1 | |
| 20260504022023 | 46 | 0.0 | 0.0 | 0.00 | 0.00 | 0.00 | 30 | 1011.0 | |
| 20260504015621 | 47 | 0.0 | 0.0 | 0.00 | 0.00 | 0.00 | 30 | 1011.0 | |
| 20260504013220 | 48 | 0.0 | 0.0 | 0.00 | 0.00 | 0.00 | 29 | 1010.9 | |
| 20260504010820 | 50 | 0.0 | 0.0 | 0.00 | 0.00 | 0.00 | 29 | 1010.6 | |
| 20260504003820 | 53 | 0.0 | 0.0 | 0.00 | 0.00 | 0.00 | 29 | 1010.3 | |
| 20260504000819 | 56 | 0.0 | 0.0 | 0.00 | 0.00 | 0.00 | 29 | 1009.9 | |
| 20260503233819 | 60 | 0.0 | 0.0 | 0.00 | 0.00 | 0.00 | 28 | 1009.3 | |
| 20260503231419 | 63 | 0.0 | 0.0 | 0.00 | 0.00 | 0.00 | 28 | 1009.1 | |
| 20260503225319 | 64 | 0.0 | 0.0 | 0.00 | 0.00 | 0.00 | 28 | 1008.9 | |
| 20260503222919 | 65 | 0.0 | 0.0 | 0.00 | 0.00 | 0.00 | 28 | 1008.3 | |
| 20260503220818 | 65 | 0.0 | 0.0 | 0.00 | 0.00 | 0.00 | 27 | 1008.9 | |
| 20260503214718 | 66 | 0.0 | 0.0 | 0.00 | 0.00 | 0.00 | 27 | 1009.0 |